Hailey, ID

9:49 AM MDT on May 25, 2018 (GMT -0600)
Friedman Memorial

Weather History for KSUN - July, 2013

Change the Weather History Date:

Monday, July 8, 2013

  Actual Average Record
Temperature  
Mean Temperature 70 °F -  
Max Temperature 86 °F 83 °F 91 °F (2014)
Min Temperature 55 °F 51 °F 42 °F (2004)
Cooling Degree Days 6    
Growing Degree Days 20 (Base 50)    
Moisture  
Dew Point 41 °F    
Average Humidity 41    
Maximum Humidity 63    
Minimum Humidity 17    
Precipitation  
Precipitation 0.00 in - - ()
Sea Level Pressure  
Sea Level Pressure 30.08 in    
Wind  
Wind Speed 7 mph (WNW)    
Max Wind Speed 13 mph    
Max Gust Speed 25 mph    
Visibility 10 miles    
Events      
Averages and records for this station are not official NWS values.
T = Trace of Precipitation, MM = Missing Value Source: NWS Daily Summary

Daily Weather History Graph

Daily Weather History Graph

Search for Another Location

Airport or City:

Astronomy

Jul. 08, 2013 Rise Set
Actual Time 6:04 AM MDT 9:19 PM MDT
Civil Twilight 5:29 AM MDT 9:54 PM MDT
Nautical Twilight 4:44 AM MDT 10:40 PM MDT
Astronomical Twilight 3:48 AM MDT 11:35 PM MDT
Moon 6:40 AM MDT (7/8) 9:20 PM MDT (7/8)
Length of Visible Light 16h 25m
Length of Day
15h 14m
New Moon, 0% of the Moon is Illuminated
Jul 8
New Moon
Jul 15
First Quarter
Jul 22
Full
Jul 29
Last Quarter
Aug 6
New

Hourly Weather History & Observations

Time (MDT) Temp. Dew Point Humidity Pressure Visibility Wind Dir Wind Speed Gust Speed Precip Events Conditions
12:15 AM 64.4 °F 41.0 °F 42% 30.02 in 10.0 mi NW 6.9 mph - N/A   Clear
12:35 AM 64.4 °F 41.0 °F 42% 30.03 in 10.0 mi WNW 4.6 mph - N/A   Clear
12:55 AM 62.6 °F 41.0 °F 45% 30.03 in 10.0 mi NNW 8.1 mph - N/A   Clear
1:15 AM 62.6 °F 41.0 °F 45% 30.04 in 10.0 mi NW 5.8 mph - N/A   Clear
1:35 AM 62.6 °F 41.0 °F 45% 30.04 in 10.0 mi NNW 4.6 mph - N/A   Clear
1:55 AM 60.8 °F 41.0 °F 48% 30.04 in 10.0 mi NW 4.6 mph - N/A   Clear
2:15 AM 60.8 °F 41.0 °F 48% 30.04 in 10.0 mi NW 5.8 mph - N/A   Clear
2:35 AM 60.8 °F 42.8 °F 52% 30.04 in 10.0 mi NW 6.9 mph - N/A   Clear
2:55 AM 60.8 °F 41.0 °F 48% 30.04 in 10.0 mi NW 8.1 mph - N/A   Clear
3:15 AM 60.8 °F 41.0 °F 48% 30.04 in 10.0 mi NW 8.1 mph - N/A   Clear
3:35 AM 60.8 °F 41.0 °F 48% 30.04 in 10.0 mi NNW 8.1 mph - N/A   Clear
3:55 AM 59.0 °F 42.8 °F 55% 30.05 in 10.0 mi NW 9.2 mph - N/A   Clear
4:15 AM 59.0 °F 42.8 °F 55% 30.05 in 10.0 mi WNW 10.4 mph - N/A   Clear
4:35 AM 59.0 °F 42.8 °F 55% 30.05 in 10.0 mi NW 8.1 mph - N/A   Clear
4:55 AM 59.0 °F 42.8 °F 55% 30.06 in 10.0 mi WNW 11.5 mph - N/A   Clear
5:15 AM 59.0 °F 42.8 °F 55% 30.07 in 10.0 mi NW 9.2 mph - N/A   Clear
5:35 AM 57.2 °F 42.8 °F 59% 30.07 in 10.0 mi NW 10.4 mph - N/A   Clear
5:55 AM 57.2 °F 42.8 °F 59% 30.08 in 10.0 mi NW 6.9 mph - N/A   Clear
6:15 AM 57.2 °F 42.8 °F 59% 30.08 in 10.0 mi NNW 8.1 mph - N/A   Clear
6:35 AM 57.2 °F 42.8 °F 59% 30.09 in 10.0 mi NW 8.1 mph - N/A   Clear
6:47 AM 57.2 °F 44.6 °F 63% 30.09 in 10.0 mi WSW 5.8 mph - N/A   Mostly Cloudy
6:55 AM 55.4 °F 42.8 °F 63% 30.09 in 10.0 mi NW 5.8 mph - N/A   Clear
8:47 AM 62.6 °F 44.6 °F 52% 30.12 in 10.0 mi NW 8.1 mph - N/A   Scattered Clouds
9:47 AM 69.8 °F 46.4 °F 43% 30.12 in 10.0 mi WNW 5.8 mph - N/A   Scattered Clouds
10:47 AM 75.2 °F 50.0 °F 41% 30.12 in 10.0 mi SE 5.8 mph - N/A   Scattered Clouds
11:47 AM 78.8 °F 50.0 °F 36% 30.12 in 10.0 mi SE 10.4 mph 16.1 mph N/A   Scattered Clouds
12:55 PM 80.6 °F 50.0 °F 34% 30.12 in 10.0 mi SSE 4.6 mph - N/A   Scattered Clouds
1:47 PM 84.2 °F 35.6 °F 18% 30.12 in 10.0 mi SSW 9.2 mph 18.4 mph N/A   Scattered Clouds
3:47 PM 86.0 °F 35.6 °F 17% 30.11 in 10.0 mi West 9.2 mph 25.3 mph N/A   Scattered Clouds
4:47 PM 86.0 °F 35.6 °F 17% 30.10 in 10.0 mi WSW 8.1 mph 16.1 mph N/A   Partly Cloudy
5:50 PM 86.0 °F 37.4 °F 18% 30.10 in 10.0 mi SW 11.5 mph 23.0 mph N/A   Partly Cloudy
6:47 PM 84.2 °F 35.6 °F 18% 30.09 in 10.0 mi SSW 9.2 mph 23.0 mph N/A   Clear
7:47 PM 84.2 °F 35.6 °F 18% 30.10 in 10.0 mi WNW 9.2 mph - N/A   Clear
8:47 PM 80.6 °F 35.6 °F 20% 30.11 in 10.0 mi WNW 6.9 mph - N/A   Clear
9:47 PM 75.2 °F 35.6 °F 24% 30.13 in 10.0 mi NNW 8.1 mph - N/A   Clear
10:47 PM 73.4 °F 37.4 °F 27% - - North - - N/A   Clear
11:15 PM 69.8 °F 35.6 °F 28% 30.15 in 10.0 mi NW 12.7 mph - N/A   Clear
11:35 PM 69.8 °F 35.6 °F 28% 30.15 in 10.0 mi NNW 6.9 mph 11.5 mph N/A   Clear
11:55 PM 69.8 °F 33.8 °F 27% 30.16 in 10.0 mi NW 9.2 mph - N/A   Clear